132  
NZUS99 KDVN 181910  
HRRRRR  
HOURLY WEATHER ROUNDUP  
NATIONAL WEATHER SERVICE QUAD CITIES IA IL  
100 PM CST SAT NOV 18 2017  
 
NOTE: "FAIR" INDICATES FEW OR NO CLOUDS BELOW 12,000 FEET WITH  
NO SIGNIFICANT WEATHER AND/OR OBSTRUCTIONS TO VISIBILITY.  
------------------------------------------------------------------  
 
CITY SKY/WX TMP DP RH WIND PRES REMARKS  
BURLINGTON CLOUDY 41 39 93 N20G29 29.65S WCI 32  
CEDAR RAPIDS CLOUDY 40 35 83 NW15G26 29.70F WCI 32  
DAVENPORT CLOUDY 40 37 89 N14G28 29.67S WCI 32  
DUBUQUE CLOUDY 38 34 85 N20G28 29.65F WCI 28  
IOWA CITY CLOUDY 42 34 73 NW18G28 29.72R WCI 34  
MOLINE CLOUDY 41 36 82 NW20G25 29.64S WCI 32  
------------------------------------------------------------------  
THE STATIONS BELOW ARE NOT NWS STATIONS AND ARE NOT SUBJECT TO NWS  
QUALITY CONTROL. SOME STATIONS DO NOT REPORT WEATHER SUCH AS FOG.  
* - STATIONS THAT REPORT TMP AND DP IN WHOLE DEGREES CELSIUS, WHICH  
ARE THEN CONVERTED TO FAHRENHEIT.  
------------------------------------------------------------------  
 
CITY SKY/WX TMP DP RH WIND PRES REMARKS  
CLINTON CLOUDY 39 37 92 N18G28 29.64F WCI 30  
FAIRFIELD * CLOUDY 41 36 81 NW25G31 29.71R WCI 31  
FORT MADISON * CLOUDY 39 39 100 N24 29.66F WCI 28  
FREEPORT CLOUDY 37 35 92 NW21G31 29.62F WCI 26  
INDEPENDENCE * PTSUNNY 40 35 80 NW24 29.72S WCI 30  
KEOKUK * CLOUDY 41 39 93 N13G24 29.66S WCI 34  
MACOMB CLOUDY 40 39 97 NW25G33 29.64S WCI 29  
MONTICELLO * PTSUNNY 39 36 87 NW16G23 29.69S WCI 30  
MT PLEASANT CLOUDY 40 38 95 NW16G28 29.69R WCI 31  
MUSCATINE * CLOUDY 41 37 87 N20G30 29.68S WCI 32  
SAVANNA CLOUDY 39 36 87 NW15G22 29.63F WCI 31  
STERLING/R.F. N/A 39 36 89 MISG N/A  
VINTON * PTSUNNY 42 33 72 NW17 29.74S WCI 34  
WASHINGTON * CLOUDY 41 37 87 N20G32 29.71R WCI 32  
------------------------------------------------------------------  
 
 
CLICK HERE TO GO TO PREVIOUS BULLETINS.

The Nexlab IL Page
The Nexlab IA Page
The Nexlab MO Page Main Text Page